Location: Atherton
(17.2661°S, 145.4859°E)
Time: 23:04:53
(UTC+10:00)

BlueWalker 3 - Pass Details

Date: 22 April 2026
Orbit: 447 x 458 km, 53.2° (Epoch: 11 May)

Event Time Altitude Azimuth Distance (km) Brightness Sun altitude
Rises 19:22:12 0° 305° (NW) 2,463 6.5 -19.1°
Reaches altitude 10° 19:24:31 10° 293° (WNW) 1,595 5.6 -19.6°
Maximum altitude 19:27:41 29° 231° (SW) 868 3.5 -20.4°
Enters shadow 19:29:36 18° 183° (S) 1,186 3.8 -20.8°
